Zurück zum Katalog

STARLINK-37799

AktivKommunikationSSO
NORAD 69317·PAYLOAD·🇺🇸 United States

Gestartet May 30, 2026 von Vandenberg Space Force Base

Loading…

Nächste Überflüge (nächste 24 Stunden)

TLE

AktuellSource: CelesTrak SupGP

Epoche: Sep 15, 2026, 03:06 UTC

1 69317C 26119X   26258.12965278 -.00040265  00000+0 -12500-2 0  2584
2 69317  97.2833 283.0083 0001280  87.5607 311.9485 15.33458383    13

Verfolge STARLINK-37799 in Echtzeit mit AllMySat

Download on the App Store